Powrót do katalogu

BREEZE-M R/B

AktywnyHEO
NORAD 41582·ROCKET BODY·🇷🇺 Russia

Wystrzelony Jun 9, 2016 z Baikonur Cosmodrome

Loading…

Następne Przeloty (najbliższe 24 godziny)

TLE

ŚwieżeSource: Space-Track

Epoka: Sep 14, 2026, 10:11 UTC

1 41582U 16035B   26257.42460720 -.00000098  00000-0  00000-0 0  9990
2 41582  30.7718 284.6871 7947193 165.0817 252.9157  1.12667900 42247

Śledź BREEZE-M R/B w czasie rzeczywistym z AllMySat

Download on the App Store